Change the Weather History Date:

Saturday, October 15, 2011

  Actual Average Record
Temperature  
Mean Temperature 44 °F -  
Max Temperature 46 °F 52 °F 60 °F (1989)
Min Temperature 42 °F 34 °F 18 °F (1978)
Degree Days  
Heating Degree Days 21    
Moisture  
Dew Point 38 °F    
Average Humidity 81    
Maximum Humidity 87    
Minimum Humidity 57    
Precipitation  
Precipitation 0.05 in - - ()
Sea Level Pressure  
Sea Level Pressure 29.25 in    
Wind  
Wind Speed 17 mph (West)    
Max Wind Speed 29 mph    
Max Gust Speed 45 mph    
Visibility 7 miles    
Events      
Averages and records for this station are not official NWS values.
T = Trace of Precipitation, MM = Missing Value Source: NWS Daily Summary

Daily Weather History Graph

Daily Weather History Graph

Search for Another Location

Airport or City:

Trip Planner

Search our weather history database for the weather conditions in past years. The results will help you decide how hot, cold, wet, or windy it might be!

Date:

Astronomy

Oct. 15, 2011 Rise Set
Actual Time 7:54 AM EDT 6:51 PM EDT
Civil Twilight 7:24 AM EDT 7:22 PM EDT
Nautical Twilight 6:49 AM EDT 7:56 PM EDT
Astronomical Twilight 6:14 AM EDT 8:31 PM EDT
Moon 8:33 PM EDT (10/15) 11:32 AM EDT (10/15)
Length of Visible Light 11h 57m
Length of Day
10h 57m
Waning Gibbous, 89% of the Moon is Illuminated
Oct 15
Waning Gibbous
Oct 19
Last Quarter
Oct 26
New
Nov 2
First Quarter
Nov 10
Full

Hourly Weather History & Observations

Time (EDT) Temp. Windchill Dew Point Humidity Pressure Visibility Wind Dir Wind Speed Gust Speed Precip Events Conditions
12:15 AM 42.8 °F 36.6 °F 39.2 °F 87% 29.23 in 5.0 mi WSW 11.5 mph - N/A   Overcast
12:35 AM 42.8 °F 36.6 °F 39.2 °F 87% 29.23 in 10.0 mi WSW 11.5 mph 20.7 mph N/A   Overcast
12:55 AM 42.8 °F 37.5 °F 39.2 °F 87% 29.22 in 10.0 mi WSW 9.2 mph 16.1 mph N/A   Overcast
1:15 AM 42.8 °F 35.8 °F 39.2 °F 87% 29.21 in 10.0 mi WSW 13.8 mph 19.6 mph N/A   Overcast
1:35 AM 42.8 °F 37.5 °F 39.2 °F 87% 29.20 in 10.0 mi WSW 9.2 mph 18.4 mph N/A   Overcast
1:55 AM 42.8 °F 36.2 °F 39.2 °F 87% 29.20 in 10.0 mi WSW 12.7 mph 19.6 mph N/A   Overcast
2:15 AM 42.8 °F 36.2 °F 39.2 °F 87% 29.20 in 10.0 mi WSW 12.7 mph 19.6 mph N/A   Overcast
2:35 AM 42.8 °F 37.0 °F 39.2 °F 87% 29.19 in 5.0 mi WSW 10.4 mph 17.3 mph N/A   Overcast
2:55 AM 42.8 °F 37.0 °F 39.2 °F 87% 29.18 in 6.0 mi WSW 10.4 mph - N/A   Overcast
3:15 AM 42.8 °F 36.6 °F 39.2 °F 87% 29.18 in 3.0 mi WSW 11.5 mph 18.4 mph N/A   Overcast
3:35 AM 42.8 °F 36.6 °F 39.2 °F 87% 29.17 in 3.0 mi WSW 11.5 mph 19.6 mph N/A   Overcast
3:55 AM 42.8 °F 37.5 °F 39.2 °F 87% 29.16 in 2.5 mi WSW 9.2 mph 18.4 mph N/A   Overcast
4:15 AM 42.8 °F 36.6 °F 39.2 °F 87% 29.15 in 2.5 mi WSW 11.5 mph 18.4 mph N/A   Overcast
4:35 AM 42.8 °F 36.6 °F 39.2 °F 87% 29.15 in 2.0 mi WSW 11.5 mph 17.3 mph N/A   Overcast
4:55 AM 42.8 °F 36.2 °F 39.2 °F 87% 29.15 in 2.5 mi WSW 12.7 mph - 0.01 in   Overcast
5:15 AM 44.6 °F 38.1 °F 41.0 °F 87% 29.15 in 3.0 mi West 13.8 mph 20.7 mph N/A   Overcast
5:35 AM 44.6 °F 37.2 °F 41.0 °F 87% 29.16 in 3.0 mi West 17.3 mph 24.2 mph N/A   Overcast
5:55 AM 44.6 °F 36.4 °F 41.0 °F 87% 29.16 in 5.0 mi WNW 20.7 mph 26.5 mph 0.01 in   Overcast
6:15 AM 44.6 °F 36.4 °F 41.0 °F 87% 29.16 in 4.0 mi WNW 20.7 mph 27.6 mph N/A   Overcast
6:35 AM 44.6 °F 37.2 °F 41.0 °F 87% 29.17 in 4.0 mi WNW 17.3 mph 27.6 mph 0.01 in   Overcast
6:55 AM 44.6 °F 36.6 °F 39.2 °F 81% 29.16 in 5.0 mi WNW 19.6 mph 36.8 mph 0.02 in   Overcast
7:15 AM 44.6 °F 35.3 °F 39.2 °F 81% 29.16 in 8.0 mi WNW 26.5 mph 40.3 mph N/A   Overcast
7:35 AM 44.6 °F 35.5 °F 39.2 °F 81% 29.17 in 10.0 mi WNW 25.3 mph 38.0 mph N/A   Overcast
7:55 AM 44.6 °F 36.6 °F 39.2 °F 81% 29.18 in 5.0 mi WNW 19.6 mph 38.0 mph N/A   Overcast
8:15 AM 44.6 °F 35.7 °F 39.2 °F 81% 29.19 in 3.0 mi WNW 24.2 mph 38.0 mph N/A   Overcast
8:35 AM 44.6 °F 36.4 °F 39.2 °F 81% 29.20 in 2.5 mi WNW 20.7 mph 36.8 mph N/A   Overcast
8:55 AM 42.8 °F 33.3 °F 39.2 °F 87% 29.21 in 4.0 mi WNW 24.2 mph 35.7 mph N/A   Overcast
9:15 AM 42.8 °F 32.7 °F 39.2 °F 87% 29.22 in 5.0 mi WNW 27.6 mph 40.3 mph N/A   Overcast
9:35 AM 42.8 °F 32.9 °F 39.2 °F 87% 29.23 in 10.0 mi WNW 26.5 mph 39.1 mph 0.01 in   Overcast
9:55 AM 42.8 °F 33.5 °F 39.2 °F 87% 29.24 in 9.0 mi WNW 23.0 mph 36.8 mph 0.01 in   Overcast
10:15 AM 42.8 °F 33.8 °F 39.2 °F 87% 29.25 in 10.0 mi WNW 21.9 mph 44.9 mph N/A   Overcast
10:35 AM 42.8 °F 32.9 °F 37.4 °F 81% 29.25 in 10.0 mi WNW 26.5 mph 41.4 mph N/A   Overcast
10:55 AM 42.8 °F 32.9 °F 37.4 °F 81% 29.26 in 10.0 mi WNW 26.5 mph 35.7 mph N/A   Overcast
11:15 AM 42.8 °F 32.5 °F 37.4 °F 81% 29.27 in 10.0 mi WNW 28.8 mph 39.1 mph N/A   Overcast
11:35 AM 42.8 °F 33.3 °F 37.4 °F 81% 29.29 in 10.0 mi WNW 24.2 mph 41.4 mph N/A   Overcast
11:55 AM 42.8 °F 33.5 °F 39.2 °F 87% 29.30 in 10.0 mi WNW 23.0 mph 36.8 mph N/A   Overcast
12:15 PM 42.8 °F 34.0 °F 39.2 °F 87% 29.31 in 5.0 mi WNW 20.7 mph 38.0 mph N/A   Overcast
12:35 PM 42.8 °F 33.5 °F 39.2 °F 87% 29.31 in 5.0 mi WNW 23.0 mph 34.5 mph N/A   Overcast
12:55 PM 42.8 °F 33.5 °F 39.2 °F 87% 29.32 in 4.0 mi WNW 23.0 mph 28.8 mph N/A   Overcast
1:35 PM 44.6 °F 36.1 °F 37.4 °F 76% 29.34 in 10.0 mi WNW 21.9 mph 35.7 mph N/A   Overcast
1:55 PM 44.6 °F 35.1 °F 37.4 °F 76% 29.34 in 10.0 mi WNW 27.6 mph 38.0 mph N/A   Overcast
2:15 PM 44.6 °F 35.7 °F 37.4 °F 76% 29.35 in 10.0 mi WNW 24.2 mph 33.4 mph N/A   Overcast
2:35 PM 44.6 °F 35.3 °F 35.6 °F 71% 29.36 in 10.0 mi WNW 26.5 mph 34.5 mph N/A   Overcast
2:55 PM 44.6 °F 36.1 °F 35.6 °F 71% 29.37 in 10.0 mi WNW 21.9 mph 40.3 mph N/A   Overcast
3:15 PM 44.6 °F 36.4 °F 33.8 °F 66% 29.38 in 10.0 mi WNW 20.7 mph 42.6 mph N/A   Overcast
3:35 PM 44.6 °F 34.9 °F 33.8 °F 66% 29.39 in 10.0 mi WNW 28.8 mph 38.0 mph N/A   Overcast
3:55 PM 46.4 °F 38.3 °F 33.8 °F 62% 29.40 in 10.0 mi WNW 23.0 mph 38.0 mph N/A   Overcast
4:15 PM 46.4 °F 38.5 °F 33.8 °F 62% 29.42 in 10.0 mi WNW 21.9 mph 34.5 mph N/A   Overcast
4:35 PM 46.4 °F 37.9 °F 32.0 °F 57% 29.43 in 10.0 mi WNW 25.3 mph 38.0 mph N/A   Overcast
4:55 PM 46.4 °F 38.7 °F 33.8 °F 62% 29.44 in 10.0 mi WNW 20.7 mph 31.1 mph N/A   Overcast
5:15 PM 46.4 °F 39.5 °F 33.8 °F 62% 29.45 in 10.0 mi WNW 17.3 mph 32.2 mph N/A   Overcast
5:35 PM 44.6 °F 37.8 °F 35.6 °F 71% 29.47 in 10.0 mi West 15.0 mph 31.1 mph N/A   Overcast
5:55 PM 42.8 °F 34.8 °F 35.6 °F 76% 29.48 in 10.0 mi WNW 17.3 mph 31.1 mph N/A   Overcast
6:15 PM 44.6 °F 36.9 °F 35.6 °F 71% 29.49 in 10.0 mi West 18.4 mph 25.3 mph N/A   Mostly Cloudy
6:35 PM 42.8 °F 33.8 °F 35.6 °F 76% 29.49 in 10.0 mi West 21.9 mph 27.6 mph N/A   Mostly Cloudy
6:55 PM 42.8 °F 33.8 °F 35.6 °F 76% 29.50 in 10.0 mi West 21.9 mph 33.4 mph N/A   Mostly Cloudy
7:15 PM 42.8 °F 34.8 °F 35.6 °F 76% 29.52 in 10.0 mi West 17.3 mph 27.6 mph N/A   Overcast
7:35 PM 42.8 °F 35.1 °F 35.6 °F 76% 29.53 in 10.0 mi West 16.1 mph 29.9 mph N/A   Overcast
7:55 PM 42.8 °F 36.2 °F 35.6 °F 76% 29.53 in 10.0 mi West 12.7 mph 19.6 mph N/A   Overcast
8:15 PM 42.8 °F 34.5 °F 35.6 °F 76% 29.54 in 10.0 mi West 18.4 mph 23.0 mph N/A   Overcast
8:35 PM 42.8 °F 37.0 °F 35.6 °F 76% 29.54 in 10.0 mi West 10.4 mph 16.1 mph N/A   Overcast
8:55 PM 42.8 °F 37.0 °F 35.6 °F 76% 29.54 in 10.0 mi West 10.4 mph - N/A   Overcast
9:15 PM 42.8 °F 37.5 °F 35.6 °F 76% 29.54 in 10.0 mi West 9.2 mph - N/A   Overcast
9:35 PM 42.8 °F 38.0 °F 35.6 °F 76% 29.55 in 10.0 mi WSW 8.1 mph - N/A   Overcast
9:55 PM 42.8 °F 37.0 °F 35.6 °F 76% 29.55 in 10.0 mi WSW 10.4 mph - N/A   Overcast
10:15 PM 42.8 °F 37.5 °F 35.6 °F 76% 29.56 in 10.0 mi West 9.2 mph - N/A   Overcast
10:35 PM 42.8 °F 37.0 °F 35.6 °F 76% 29.55 in 10.0 mi West 10.4 mph - N/A   Overcast
10:55 PM 42.8 °F 37.5 °F 35.6 °F 76% 29.55 in 10.0 mi WSW 9.2 mph - N/A   Overcast
11:15 PM 42.8 °F 37.0 °F 35.6 °F 76% 29.55 in 10.0 mi West 10.4 mph - N/A   Overcast
11:35 PM 42.8 °F 37.5 °F 35.6 °F 76% 29.56 in 10.0 mi West 9.2 mph - N/A   Overcast
11:55 PM 44.6 °F 38.1 °F 35.6 °F 71% 29.56 in 10.0 mi West 13.8 mph - N/A   Overcast